Location: Newark
(53.3333°N, 83.7500°E)
Time: 03:34:40
(UTC+00:00)

SR - Pass Details

Date: 15 November 2019
Orbit: 573 x 882 km, 66.7° (Epoch: 10 December)

Event Time Altitude Azimuth Distance (km) Brightness Sun altitude
Rises 12:09:23 0° 250° (WSW) 3,263 ? -14.7°
Reaches altitude 10° 12:11:53 10° 259° (WSW) 2,383 ? -15.1°
Maximum altitude 12:17:03 39° 327° (NNW) 1,248 ? -15.8°
Enters shadow 12:21:57 13° 33° (NNE) 2,328 ? -16.6°
